Flag for U.S.A. Weather past 2 weeks in Rochester, New York, U.S.A.

Now
61 °F

More clouds than sun.


Feels Like: 61 °F
Forecast: 63 / 66 °F
Wind: 7 mph from North

Location: Greater Rochester International Airport

Current Time: Jul 28, 2014 at 5:17:35 PM

Latest Report: Jul 28, 2014 at 4:54 PM


Visibility: 10 mi

Pressure: 29.76 "Hg

Humidity: 87%

Dew point: 57 °F

Location of RochesterLocation

Historic Weather in Rochester — Graph

°F

Rochester temperature yesterday

Maximum temperature yesterday: 82 °F (at 2:54 PM)
Minimum temperature yesterday: 68 °F (at 5:00 AM)
Average temperature yesterday: 75 °F

Past Weeks' High & Low Weather Summary

 TemperatureHumidityPressure
High84 °F (Jul 22, 12:54 PM)100% (Jul 15, 7:54 AM)30.26 "Hg (Jul 15, 7:54 AM)
Low52 °F (Jul 25, 5:54 AM)37% (Jul 18, 1:54 PM)29.54 "Hg (Jul 28, 6:54 AM)
Average69 °F72%29.96 "Hg
* Reported Jul 13 3:54 PM — Jul 28 3:54 PM, Rochester, Weather by CustomWeather, © 2014

Note: Actual official high and low records may vary slightly from our data, if they occured in-between our weather recording intervals... More about our weather records

Advertising

Rochester weather history for previous 24 hours

 ConditionsComfort  
Time TempWeatherWind HumidityBarometerVisibility
3:54 PM
Jul 28
61 °FLight rain. Overcast.10 mph87%29.74 "Hg10 mi
2:54 PM60 °FLight rain. Low clouds.13 mph93%29.72 "Hg10 mi
1:54 PM61 °FLight rain. Fog.16 mph90%29.69 "Hg4 mi
12:54 PM61 °FRain. Fog.14 mph93%29.67 "Hg5 mi
11:54 AM62 °FRain. Fog.12 mph93%29.65 "Hg4 mi
10:54 AM62 °FRain. Fog.21 mph93%29.62 "Hg2 mi
9:54 AM63 °FHeavy rain. Fog.21 mph93%29.61 "Hg2 mi
8:54 AM64 °FHeavy rain. Fog.20 mph94%29.58 "Hg1 mi
7:54 AM65 °FLight rain. Fog.22 mph97%29.54 "Hg3 mi
6:54 AM66 °FLight rain. Mostly cloudy.17 mph93%29.54 "Hg10 mi
5:54 AM66 °FLight rain. Overcast.9 mph90%29.55 "Hg10 mi
4:54 AM66 °FLight rain. Mostly cloudy.8 mph93%29.56 "Hg8 mi
3:54 AM66 °FLight rain. Mostly cloudy.8 mph93%29.56 "Hg10 mi
2:54 AM65 °FLight rain. Mostly cloudy.10 mph94%29.57 "Hg10 mi
1:54 AM66 °FThunderstorms. Fog.13 mph90%29.61 "Hg4 mi
12:54 AM66 °FStrong thunderstorms. Fog.7 mph90%29.62 "Hg2 mi
11:54 PM
Jul 27
72 °FThunderstorms. Mostly cloudy.16 mph71%29.60 "Hg10 mi
10:54 PM73 °FLight rain. Overcast.9 mph74%29.61 "Hg10 mi
9:54 PM75 °FMostly cloudy.12 mph69%29.62 "Hg10 mi
8:54 PM75 °FCloudy.No wind66%29.63 "Hg10 mi
7:54 PM78 °FCloudy.No wind54%29.63 "Hg10 mi
6:54 PM79 °FBroken clouds.5 mph50%29.65 "Hg10 mi
5:54 PM82 °FScattered clouds.8 mph41%29.64 "Hg10 mi
Weather by CustomWeather, © 2014

See weather overviewHow to use our weather pages